Rechercher aéroport 
image banner adimage banner adimage banner ad
image banner ad

NV67 - Pilot Creek Ranches

Situé à Montello, United States

ICAO - NV67, IATA -

Données fournies par Airmate  

Information générale

Coordonnées: N41°6'57" W114°6'49"
Élévation : 4980 feet MSL.
Variation magnétique : 15° East
Voir autres Aéroports à Nevada

Données opérationnelles

Special qualification required
Heure actuelle UTC:
Heure actuelle locale:
Météo à : KENV - Wendover ( 45 km )
METAR: KENV 270556Z AUTO 20006KT 10SM CLR 28/12 A3005 RMK AO2 SLP123 T02830122 10372 20278 50021
TAF: KENV 270545Z 2706/2806 21010KT P6SM SCT250 FM272000 14007KT P6SM BKN250 FM280000 13010KT P6SM VCTS BKN100CB
Voir NOTAMs / SUP AIP / TFR affectant cet aéroport [VIEW]
Fréquences de communication: [VIEW]

Pistes:

Identifiant RWYQFULongueur (ft)Largeur (ft)SurfaceLDA (ft)
07200025EARTH
25200025EARTH

Coordonnées de l'aéroport

Adresse: Montello United States

Vue satellite de NV67